星链-4732 (STARLINK-4732 )

导读

STARLINK-4732是美国SpaceX公司星链(Starlink)卫星互联网星座中的一颗卫星,于2022年9月19日发射。星链计划旨在构建全球卫星互联网网络,为全球偏远、欠发达地区以及应急场景提供互联网接入服务,这类低轨卫星承担着为地面用户提供宽带网络连接的功能。

基本信息
目录编号:
53870
目录名称:
STARLINK-4732
国际标识:
2022-114BE
轨道中心:
EARTH
卫星名称:
星链-4732
卫星全名:
星链-4732 (STARLINK-4732 )
卫星状态:
在轨 (已飞行1453 天)
发射日期:
2022-09-19 UTC
国别 :
美国 (US)
星等 :
--
该卫星已列入 空间交会检测服务 Space Conjunction Data Service (SCDS) ,当前飞行风险评估等级: 无高风险
轨道信息
数据来源 国际轨道数据 AOE轨道数据
星历时间 2026-09-11T09:52:54+0800
18小时前
查看轨道信息
2026-09-10T22:00:00+0800
1天前
查看轨道信息
半长轴 6840.885km 6840.927km
偏心率 0.000084 0.0001146
轨道倾角 53.158° 53.158°
近地点辐角 75.273° 60.672°
升交点赤经 137.667° 139.984°
平近点角 284.837° 83.184°
近地点 462.173km 462.006km
远地点 463.323km 463.574km
周期 93.849分钟 93.850分钟
每日圈数 15.343852 15.343709
详细信息
固有亮度:
5
最大亮度:
2.5
卫星平台:
Starlink v1.5
覆盖范围:
全球
运营商:
太空探索技术公司
运营商所在国:
美国
制造商(研发单位):
太空探索技术公司
制造商所在国:
美国
使用方式:
暂无
卫星简介
星链(Starlink)计划是由太空探索技术公司(SpaceX)提出的一个巨型低轨卫星互联网星座项目,计划在2019年至2024年间在太空搭建由约1.2万颗卫星组成的“星链”网络,其中1584颗将部署在地球上空550千米处的近地轨道,并从2020年开始工作。该卫星仍在工作。
2D轨道图
3D轨道图
轨道高度分析图
轨道倾角分析图
轨道综合分析图
查看轨道综合分析图
与全量物体交会距离演化趋势
与全量物体交会风险概率演化趋势